sat.trackr.live / text

‹ back to catalog

STARLINK-32179

NORAD 60734 · 2024-152Q

PAYLOAD ACTIVE UNKNOWN

§ Identity

Operator
Country
US
Launch date
2024-08-28
Launch site
AFETR
Launch vehicle
Mass (kg)
RCS (m²)

Purposes: comms

External: N2YO · Heavens-Above · Gunter

§ Orbital elements

Epoch: 2026-05-24T18:28:36.863040Z

Period
94.10 min
Inclination
53.1600°
Eccentricity
0.0000974
Mean motion
15.30213627 rev/d
Perigee alt
474.5 km
Apogee alt
475.8 km
Semi-major
6,853.3 km
B*
-1.0515e-4
RAAN
275.4301°
Arg perigee
82.2377°
Mean anomaly
277.8735°
Rev number
9,836

§ Raw data

STARLINK-321791 60734U 24152Q   26144.76987110 -.00003473  00000+0 -10515-3 0  99932 60734  53.1600 275.4301 0000974  82.2377 277.8735 15.30213627 98363

JSON: /api/v1/satellites/60734 · /tle

For live sub-satellite position, see the globe view (requires WebGL).

§ Visibility from observer

Set your observer location to see the next 7 days of passes ≥ 10°. The values pass through the URL so the page stays shareable.

No JS? Fill the form by hand. The geolocation button needs JavaScript.